Other Public Products
Issued by NWS Charleston, SC

Current Version | Previous Version | Graphics & Text | Print | Product List | Glossary On
Versions: 1 2 3 4 5 6 7 8 9 10 11 12 13 14 15 16 17 18 19 20 21 22 23 24 25 26 27 28 29 30 31 32 33 34 35 36 37 38 39 40 41 42 43 44 45 46 47 48 49 50
000 FPUS82 KCHS 250412 OPUCHS TEST...KCHS/KSAV Gateway Observations...TEST National Weather Service Charleston SC 1100 PM EST FRI NOV 24 2017 NOTE: "fair" indicates few or no clouds below 12,000 feet with no significant weather and/or obstructions to visibility. SCZ050-WAZ558-NCZ071-TXZ119-213-PAZ071-DCZ001-FLZ074-172-MI076- NYZ176-178-MAZ016-IL014-TNZ027-NJZ106-GAZ044-MD014-250500- ...Gateway Observations for Charleston International... CITY SKY/WX TMP DP RH WIND PRES REMARKS Chas Airport CLEAR 47 41 80 NW5 29.97R Seattle CLOUDY 50 41 71 S6 30.06F Charlotte CLEAR 42 36 79 CALM 29.97F Dallas DFW CLEAR 63 38 39 S8 29.79F Dallas Love CLEAR 63 37 38 S10 29.82S Philladelphia CLEAR 41 32 70 S7 29.96F Wash National CLEAR 41 33 73 S8 29.95F Baltimore CLEAR 35 31 85 CALM 29.94F Miami CLOUDY 72 66 81 N6 29.98R Detroit PTCLDY 48 32 53 SW20 29.57F Newark CLEAR 41 28 60 SW6 29.95F Laguardia CLEAR 46 31 55 S9 29.95S J F K CLEAR 41 32 70 SW9 29.97S Boston Logan CLEAR 40 33 76 S12 29.92F WCI 33 Ft. Lauderdale PTCLDY 68 66 93 NW5 29.97R Chicago O`Hare CLOUDY 51 40 65 SW7 29.51R Chicago Midway CLOUDY 51 40 65 S9 29.52F Houston Bush PTCLDY 54 47 77 S5 29.93S Houston Hobby CLOUDY 55 48 77 S6 29.93S Nashville CLEAR 47 32 56 S8 29.89F Atlanta PTCLDY 49 43 80 SW3 29.99R $$ GAZ044-118-TXZ119-213-NCZ071-DCZ001-MDZ014-506-PAZ021-071-NJZ106- NYZ176-178-MAZ106-OHZ011-021-055-MIZ076-KYZ091-ILZ014-INZ047- MNZ060-ONZ431-250500- ...Gateway Observations for Savannah International... CITY SKY/WX TMP DP RH WIND PRES REMARKS Savannah Arpt CLEAR 43 41 93 CALM 29.99R Atlanta PTCLDY 49 43 80 SW3 29.99R Charlotte CLEAR 42 36 79 CALM 29.97F Dallas DFW CLEAR 63 38 39 S8 29.79F Houston Bush PTCLDY 54 47 77 S5 29.93S Wash National CLEAR 41 33 73 S8 29.95F Wash Dulles CLEAR 35 30 82 CALM 29.94S Baltimore CLEAR 35 31 85 CALM 29.94F Philadelphia CLEAR 41 32 70 S7 29.96F Newark CLEAR 41 28 60 SW6 29.95F Laguardia CLEAR 46 31 55 S9 29.95S J F K CLEAR 41 32 70 SW9 29.97S Boston CLEAR 40 33 76 S12 29.92F WCI 33 Pittsburg PTCLDY 42 20 41 S8 29.77F Akron CLOUDY 48 23 37 S15 29.71F Cleveland CLOUDY 51 26 37 S17G29 29.66F Cincinnati PTCLDY 50 27 40 S12G22 29.75R Columbus CLOUDY 46 26 45 S10 29.73F Detroit PTCLDY 48 32 53 SW20 29.57F Chicago O`Hare CLOUDY 51 40 65 SW7 29.51R Minneapolis CLEAR 43 35 73 W13 29.73R Indianapolis CLOUDY 50 31 48 S15 29.69F Toronto Canada MOCLDY 48 28 46 S15G25 29.55F $$

USA.gov is the U.S. government's official web portal to all federal, state and local government web resources and services.